Home   Weather   Alexandroupoli   Past weeks

Flag for Greece Past Weather in Alexandroupoli, Greece — Yesterday and Last 2 Weeks

Now
63 °F

Scattered clouds.


Feels Like: 63 °F
Forecast: 48 / 60 °F
Wind: 17 mph from Southwest

Location: Alexandroupoli Airport

Current Time: Apr 23, 2017 at 5:21:11 pm

Latest Report: Apr 23, 2017 at 4:50 pm


Visibility: N/A

Pressure: 29.95 "Hg

Humidity: 56%

Dew Point: 46 °F

Location of AlexandroupoliLocation

Past Weather in Alexandroupoli — Graph

°F

Alexandroupoli Temperature Yesterday

Maximum temperature yesterday: 61 °F (at 3:50 pm)
Minimum temperature yesterday: 41 °F (at 6:20 am)
Average temperature yesterday: 52 °F

High & Low Weather Summary for the Past Weeks

 TemperatureHumidityPressure
High72 °F (Apr 12, 2:50 pm)100% (Apr 17, 6:50 pm)30.24 "Hg (Apr 17, 6:50 pm)
Low37 °F (Apr 11, 6:50 am)34% (Apr 22, 3:50 pm)29.71 "Hg (Apr 20, 8:50 am)
Average56 °F67%29.96 "Hg
* Reported Apr 8 3:20 pm — Apr 23 3:50 pm, Alexandroupoli, Weather by CustomWeather, © 2017

Note: Actual official high and low records may vary slightly from our data, if they occured in-between our weather recording intervals... More about our weather records

Advertising

Alexandroupoli Weather History for the Previous 24 Hours

Scroll right to see more
 ConditionsComfort  
Time TempWeatherWind HumidityBarometerVisibility
3:50 pm
Sun, Apr 23
63 °FScattered clouds.16 mph52%29.95 "HgN/A
3:20 pm61 °FScattered clouds.17 mph55%29.95 "HgN/A
2:50 pm61 °FPassing clouds.15 mph55%29.95 "HgN/A
2:20 pm59 °FPassing clouds.13 mph48%29.95 "HgN/A
1:50 pm59 °FPassing clouds.14 mph48%29.95 "HgN/A
1:20 pm59 °FPassing clouds.12 mph45%29.95 "HgN/A
12:50 pm57 °FPassing clouds.10 mph48%29.95 "HgN/A
12:20 pm55 °FPassing clouds.9 mph55%29.95 "HgN/A
11:50 am55 °FPassing clouds.8 mph55%29.95 "HgN/A
11:20 am54 °FPassing clouds.8 mph58%29.95 "HgN/A
10:50 am52 °FPassing clouds.5 mph62%29.95 "HgN/A
10:20 am50 °FScattered clouds.No wind67%29.92 "HgN/A
9:50 am50 °FScattered clouds.3 mph67%29.92 "HgN/A
9:20 am48 °FScattered clouds.3 mph71%29.89 "HgN/A
8:50 am48 °FScattered clouds.3 mph71%29.89 "HgN/A
8:20 am46 °FScattered clouds.3 mph76%29.89 "HgN/A
11:50 pm
Sat, Apr 22
48 °FPassing clouds.7 mph66%29.95 "HgN/A
11:20 pm48 °FPassing clouds.6 mph71%29.95 "HgN/A
10:20 pm48 °FPassing clouds.7 mph66%29.95 "HgN/A
9:20 pm50 °FPassing clouds.8 mph54%29.95 "HgN/A
8:50 pm50 °FPassing clouds.8 mph54%29.95 "HgN/A
8:20 pm50 °FPassing clouds.8 mph67%29.95 "HgN/A
7:50 pm52 °FScattered clouds.9 mph62%29.95 "HgN/A
7:20 pm54 °FScattered clouds.5 mph54%29.95 "HgN/A
6:50 pm54 °FScattered clouds.7 mph54%29.95 "HgN/A
6:20 pm55 °FScattered clouds.2 mph44%29.98 "HgN/A
5:50 pm57 °FScattered clouds.6 mph41%29.98 "HgN/A
5:20 pm59 °FScattered clouds.6 mph39%29.98 "HgN/A
Weather by CustomWeather, © 2017

See weather overviewHow to use our weather pages